Location: Unspecified
(0.0000°N, 0.0000°E)
Time: 14:02:55
(UTC+00:00)

FORMOSAT 3A - Pass Details

Date: 20 May 2026
Orbit: 751 x 823 km, 72.0° (Epoch: 5 June)

Event Time Altitude Azimuth Distance (km) Brightness Sun altitude
Rises 21:03:12 0° 329° (NNW) 3,313 10.9 -43.1°
Reaches altitude 10° 21:05:49 10° 320° (NW) 2,375 10.1 -43.6°
Enters shadow 21:06:26 13° 317° (NW) 2,165 9.8 -43.8°
